Simultaneous Nadir Overpasses (SNOs) Predictions

Prediction of SNOs between AQUA and METOP-B Satellite Orbit:

Table of predicted SNOs for the next 14.0 days since TLE Epoch: 10/15/2012
Index Date (AQUA) Time (AQUA) AQUA Lat,Lon Date (METOP-B) Time (METOP-B) METOP-B Lat,Lon Distance(km) Time Diff (sec)
1 10/15/2012 21:35:19 73.80,-149.61 10/15/2012 21:34:42 73.78,-149.58 2.58 37
2 10/15/2012 22:24:45 -73.82, 17.98 10/15/2012 22:25:22 -73.83, 17.88 3.07 37
3 10/18/2012 17:09:35 73.79, -83.17 10/18/2012 17:09:06 73.81, -83.09 3.09 29
4 10/18/2012 17:59:02 -73.86, 84.31 10/18/2012 17:59:46 -73.87, 84.38 2.07 44
5 10/21/2012 11:54:12 -73.09, 177.09 10/21/2012 11:53:06 -73.08, 174.32 89.66 66
6 10/21/2012 12:43:53 73.80, -16.76 10/21/2012 12:43:32 73.79, -16.72 1.27 21
7 10/21/2012 13:33:20 -73.86, 150.73 10/21/2012 13:34:12 -73.86, 150.76 1.17 52
8 10/24/2012 07:28:36 -73.37,-117.06 10/24/2012 07:27:27 -73.32,-118.74 53.96 69
9 10/24/2012 08:18:11 73.76, 49.73 10/24/2012 08:17:58 73.78, 49.65 3.06 13
10 10/24/2012 09:07:39 -73.88,-142.88 10/24/2012 09:08:38 -73.85,-142.85 3.28 59
11 10/27/2012 03:02:59 -73.60, -51.14 10/27/2012 03:01:47 -73.56, -51.78 20.72 72
12 10/27/2012 03:52:30 73.80, 116.08 10/27/2012 03:52:22 73.81, 116.14 2.73 8
13 10/27/2012 04:41:57 -73.85, -76.40 10/27/2012 04:43:03 -73.85, -76.46 1.97 66




NCC Satellite Simultaneous Nadir Overpasses (SNOs) Prediction Service
